Woodside DE-Willow Grove DE USA current weather conditions

sailwx.info

Wind from 074 at 4 knots gusting 5

Air temperature 10.5° C
Dewpoint 10.3° C

Last reported at 2019-Dec-13 22:50 UTC.
Time now 2019-Dec-13 23:19 UTC

Location: N 39°04' W 075°38'.
View on Google Maps.

See reports from other nearby stations

  
Tides and Currents Weather Stations Pressure Air Temp Water Temp Dewpoint Dewpoint Depression Visibility Wind Speed Wind Dir Waves Ship Positions
date/time (UTC)wind fromknots sea level pressurealtimeterstation pressurevisibilityair tempwater tempwave heightnotes
2019-Dec-13 22:50 074 4 gusting 5 10.5
2019-Dec-13 22:45 089 4 gusting 7 10.7
2019-Dec-13 22:40 106 6 gusting 11 10.7
2019-Dec-13 22:35 111 5 gusting 10 10.6
2019-Dec-13 22:30 116 6 gusting 9 10.6
2019-Dec-13 22:25 111 6 gusting 9 10.5
2019-Dec-13 22:20 111 5 gusting 7 10.4
2019-Dec-13 22:15 115 4 gusting 7 10.1
2019-Dec-13 22:10 109 3 gusting 5 9.9
2019-Dec-13 22:05 108 3 gusting 5 9.7
2019-Dec-13 22:00 102 3 gusting 5 9.6
2019-Dec-13 21:55 094 3 gusting 4 9.6
2019-Dec-13 21:50 092 4 gusting 6 9.6
2019-Dec-13 21:45 079 4 gusting 6 9.6
2019-Dec-13 21:40 080 3 gusting 6 9.7
2019-Dec-13 21:35 091 3 gusting 5 9.7
2019-Dec-13 21:30 089 3 gusting 5 9.7
2019-Dec-13 21:25 081 3 gusting 5 9.7
2019-Dec-13 21:20 070 2 gusting 4 9.7
2019-Dec-13 21:15 073 2 gusting 5 9.7
2019-Dec-13 21:10 082 4 gusting 5 9.7
2019-Dec-13 21:05 086 4 gusting 7 9.7
2019-Dec-13 21:00 079 3 gusting 5 9.7
2019-Dec-13 20:55 080 3 gusting 6 9.7
2019-Dec-13 20:50 075 4 gusting 6 9.7
2019-Dec-13 20:45 081 4 gusting 5 9.8
2019-Dec-13 20:40 084 3 gusting 6 9.8
2019-Dec-13 20:35 082 3 gusting 5 9.8
2019-Dec-13 20:30 084 3 gusting 4 9.8
2019-Dec-13 20:25 083 3 gusting 4 9.8
2019-Dec-13 20:20 082 3 gusting 4 9.8
2019-Dec-13 20:15 083 3 gusting 4 9.9
2019-Dec-13 20:10 080 3 gusting 4 9.9
2019-Dec-13 20:05 085 3 gusting 5 9.8
2019-Dec-13 20:00 076 2 gusting 4 9.9
2019-Dec-13 19:55 078 3 gusting 5 9.9
2019-Dec-13 19:50 070 3 gusting 5 9.9
2019-Dec-13 19:45 077 3 gusting 5 9.9
2019-Dec-13 19:40 069 4 gusting 6 9.9
2019-Dec-13 19:35 074 3 gusting 5 10.0
2019-Dec-13 19:30 079 3 gusting 5 10.1
2019-Dec-13 19:25 073 4 gusting 5 10.1
2019-Dec-13 19:20 071 3 gusting 4 10.2
2019-Dec-13 19:15 074 3 gusting 4 10.2
2019-Dec-13 19:10 076 3 gusting 5 10.2
2019-Dec-13 19:05 076 3 gusting 5 10.2
2019-Dec-13 19:00 070 3 gusting 5 10.2
2019-Dec-13 18:55 064 4 gusting 6 10.2
2019-Dec-13 18:50 055 4 gusting 7 10.3
2019-Dec-13 18:45 056 3 gusting 5 10.3
2019-Dec-13 18:40 050 4 gusting 6 10.4
2019-Dec-13 18:35 053 4 gusting 5 10.4
2019-Dec-13 18:30 053 3 gusting 4 10.5
2019-Dec-13 18:25 047 3 gusting 4 10.5
2019-Dec-13 18:20 039 2 gusting 4 10.6
2019-Dec-13 18:15 030 2 gusting 3 10.6
2019-Dec-13 18:10 022 3 gusting 5 10.6
2019-Dec-13 18:05 036 4 gusting 5 10.7
2019-Dec-13 18:00 034 2 gusting 3 10.8
2019-Dec-13 17:55 028 2 gusting 2 11.0
2019-Dec-13 17:50 040 1 gusting 3 11.1
2019-Dec-13 17:45 030 1 gusting 2 11.0
2019-Dec-13 17:40 028 1 gusting 2 11.0
2019-Dec-13 17:35 073 0 gusting 1 11.1
2019-Dec-13 17:20 096 2 gusting 3 10.9
2019-Dec-13 17:15 076 2 gusting 5 10.9
2019-Dec-13 17:10 098 3 gusting 4 10.9
2019-Dec-13 17:05 088 4 gusting 6 10.8
2019-Dec-13 17:00 094 4 gusting 7 10.9
2019-Dec-13 16:55 100 3 gusting 5 11.0
2019-Dec-13 16:50 109 3 gusting 5 10.8
2019-Dec-13 16:45 117 4 gusting 7 10.7
2019-Dec-13 16:40 114 4 gusting 7 10.6
2019-Dec-13 16:35 113 4 gusting 7 10.6
2019-Dec-13 16:30 111 5 gusting 7 10.6
2019-Dec-13 16:15 106 5 gusting 9 10.4
2019-Dec-13 16:10 109 4 gusting 7 10.4
2019-Dec-13 16:05 118 4 gusting 7 10.2
2019-Dec-13 16:00 115 5 gusting 8 10.1
2019-Dec-13 15:55 112 4 gusting 6 10.0
2019-Dec-13 15:50 114 4 gusting 6 9.8
2019-Dec-13 15:45 103 4 gusting 6 9.5
2019-Dec-13 15:40 101 3 gusting 5 9.3
2019-Dec-13 15:35 106 3 gusting 6 9.1
2019-Dec-13 15:30 103 3 gusting 5 8.7
2019-Dec-13 15:25 095 3 gusting 5 8.5
2019-Dec-13 15:20 090 3 gusting 6 8.2
2019-Dec-13 15:15 099 3 gusting 5 8.0
2019-Dec-13 15:10 096 3 gusting 6 7.8
2019-Dec-13 15:05 099 3 gusting 5 7.6
2019-Dec-13 15:00 101 3 gusting 5 7.3
2019-Dec-13 14:55 095 4 gusting 7 7.0
2019-Dec-13 14:50 096 4 gusting 6 6.8
2019-Dec-13 14:45 102 3 gusting 5 6.4
2019-Dec-13 14:40 099 3 gusting 4 6.1
2019-Dec-13 14:35 091 3 gusting 5 5.9
2019-Dec-13 14:30 086 3 gusting 5 5.6
2019-Dec-13 14:25 084 3 gusting 5 5.4
2019-Dec-13 14:20 085 3 gusting 4 5.1
2019-Dec-13 14:15 087 3 gusting 4 4.9
2019-Dec-13 14:10 086 2 gusting 4 4.6
2019-Dec-13 14:05 086 2 gusting 4 4.5
2019-Dec-13 14:00 090 3 gusting 4 4.3
2019-Dec-13 13:55 087 3 gusting 4 4.1
2019-Dec-13 13:50 085 3 gusting 4 3.8
2019-Dec-13 13:45 082 2 gusting 3 3.4
2019-Dec-13 13:40 085 2 gusting 3 3.0
2019-Dec-13 13:35 089 2 gusting 4 2.9
2019-Dec-13 13:30 095 2 gusting 4 2.7
2019-Dec-13 13:25 090 2 gusting 3 2.5
2019-Dec-13 13:20 073 2 gusting 3 2.2
2019-Dec-13 13:15 073 2 gusting 3 1.9
2019-Dec-13 13:10 069 1 gusting 2 1.7
2019-Dec-13 13:05 064 1 gusting 1 1.6
2019-Dec-13 13:00 058 2 gusting 4 1.5
2019-Dec-13 12:55 083 2 gusting 3 1.4
2019-Dec-13 12:50 081 2 gusting 4 1.3
2019-Dec-13 12:45 085 2 gusting 4 1.1
2019-Dec-13 12:40 094 0 gusting 1 0.9
2019-Dec-13 12:35 084 0 gusting 0 0.8
2019-Dec-13 12:30 083 0 gusting 1 0.7
2019-Dec-13 12:25 0.8
2019-Dec-13 12:20 0.7
2019-Dec-13 12:15 0.6
2019-Dec-13 12:10 349 0 gusting 1 0.5
2019-Dec-13 12:05 007 1 gusting 1 0.5
2019-Dec-13 12:00 043 0 gusting 1 0.5
2019-Dec-13 11:55 019 0 gusting 1 0.4
2019-Dec-13 11:50 320 0 gusting 1 0.4
2019-Dec-13 11:45 046 0 gusting 1 0.4
2019-Dec-13 11:40 033 1 gusting 1 0.3
2019-Dec-13 11:35 051 2 gusting 3 0.1
2019-Dec-13 11:30 083 0 gusting 1 -0.0
2019-Dec-13 11:25 087 1 gusting 2 -0.4
2019-Dec-13 11:20 029 0 gusting 1 -0.8
2019-Dec-13 11:15 016 0 gusting 1 -0.8
2019-Dec-13 11:10 040 1 gusting 1 -1.0
2019-Dec-13 11:05 088 1 gusting 1 -1.2
2019-Dec-13 11:00 080 1 gusting 2 -1.3
2019-Dec-13 10:55 354 1 gusting 2 -1.4
2019-Dec-13 10:50 070 0 gusting 1 -1.4
2019-Dec-13 10:45 331 0 gusting 1 -1.2
2019-Dec-13 10:40 347 0 gusting 1 -1.2
2019-Dec-13 10:35 353 1 gusting 2 -1.0
2019-Dec-13 10:30 344 1 gusting 2 -1.1
2019-Dec-13 10:25 330 1 gusting 2 -1.4
2019-Dec-13 10:20 058 0 gusting 1 -1.9
2019-Dec-13 10:15 065 0 gusting 1 -1.4
2019-Dec-13 10:10 019 1 gusting 2 -1.1
2019-Dec-13 10:05 019 1 gusting 2 -1.1
2019-Dec-13 10:00 022 0 gusting 1 -0.8
2019-Dec-13 09:50 031 1 gusting 1 -0.9
2019-Dec-13 09:45 021 1 gusting 2 -0.9
2019-Dec-13 09:40 027 1 gusting 2 -0.9
2019-Dec-13 09:35 033 1 gusting 2 -0.9
2019-Dec-13 09:30 031 1 gusting 2 -1.0
2019-Dec-13 09:25 024 1 gusting 2 -0.9
2019-Dec-13 09:20 022 1 gusting 2 -0.9
2019-Dec-13 09:15 020 1 gusting 2 -1.0
2019-Dec-13 09:10 020 1 gusting 1 -1.1
2019-Dec-13 09:05 020 1 gusting 2 -1.1
2019-Dec-13 09:00 026 1 gusting 2 -1.1
2019-Dec-13 08:55 028 1 gusting 2 -1.1
2019-Dec-13 08:50 029 1 gusting 2 -1.1
2019-Dec-13 08:45 041 1 gusting 2 -1.0
2019-Dec-13 08:40 030 1 gusting 1 -1.0
2019-Dec-13 08:35 026 1 gusting 2 -1.1
2019-Dec-13 08:30 016 1 gusting 1 -1.2
2019-Dec-13 08:25 015 0 gusting 1 -1.3
2019-Dec-13 08:20 001 1 gusting 1 -1.2
2019-Dec-13 08:15 001 2 gusting 3 -1.2
2019-Dec-13 08:10 354 2 gusting 2 -1.4
2019-Dec-13 08:05 352 2 gusting 3 -1.5
2019-Dec-13 08:00 355 2 gusting 3 -1.5
2019-Dec-13 07:55 349 2 gusting 2 -1.3
2019-Dec-13 07:50 353 1 gusting 1 -1.6
2019-Dec-13 07:45 018 0 gusting 1 -1.9
2019-Dec-13 07:40 027 0 gusting 0 -2.1
2019-Dec-13 07:35 028 0 gusting 1 -2.3
2019-Dec-13 07:30 049 0 gusting 1 -2.4
2019-Dec-13 07:25 052 1 gusting 2 -2.4
2019-Dec-13 07:20 054 0 gusting 1 -2.2
2019-Dec-13 07:05 343 1 gusting 1 -0.9
2019-Dec-13 07:00 347 2 gusting 2 -0.7
2019-Dec-13 06:55 346 2 gusting 3 -0.8
2019-Dec-13 06:50 349 3 gusting 3 -1.0
2019-Dec-13 06:45 358 2 gusting 3 -1.5
2019-Dec-13 06:40 358 1 gusting 1 -1.0
2019-Dec-13 06:35 354 1 gusting 1 -1.1
2019-Dec-13 06:30 024 0 gusting 1 -0.6
2019-Dec-13 06:25 351 0 gusting 1 -0.2
2019-Dec-13 06:20 355 0 gusting 1 -0.1
2019-Dec-13 06:15 027 0 gusting 1 -0.5
2019-Dec-13 06:10 -0.8
2019-Dec-13 06:05 189 0 gusting 0 -1.0
2019-Dec-13 06:00 189 0 gusting 1 -0.8
2019-Dec-13 05:55 158 0 gusting 1 -0.5
2019-Dec-13 05:50 029 0 gusting 1 -0.2
2019-Dec-13 05:45 028 1 gusting 2 0.1
2019-Dec-13 05:40 029 1 gusting 2 0.2
2019-Dec-13 05:35 034 2 gusting 3 0.1
2019-Dec-13 05:30 037 2 gusting 3 -0.0
2019-Dec-13 05:25 029 2 gusting 3 0.0
2019-Dec-13 05:20 024 2 gusting 3 -0.1
2019-Dec-13 05:05 066 1 gusting 2 -0.1
2019-Dec-13 05:00 063 1 gusting 3 -0.2
2019-Dec-13 04:55 068 1 gusting 2 -0.3
2019-Dec-13 04:50 068 1 gusting 1 -0.3
2019-Dec-13 04:45 086 1 gusting 1 -0.3
2019-Dec-13 04:40 094 0 gusting 1 -0.1
2019-Dec-13 04:35 064 1 gusting 1 0.3
2019-Dec-13 04:30 045 1 gusting 2 0.5
2019-Dec-13 04:25 050 2 gusting 4 0.4
2019-Dec-13 04:20 061 2 gusting 3 0.3
2019-Dec-13 04:15 064 2 gusting 3 0.3
2019-Dec-13 04:10 073 2 gusting 3 0.3
2019-Dec-13 04:05 063 2 gusting 4 0.2
2019-Dec-13 04:00 069 2 gusting 4 0.2
2019-Dec-13 03:55 065 2 gusting 4 0.1
2019-Dec-13 03:50 065 2 gusting 3 -0.0
2019-Dec-13 03:45 069 2 gusting 4 -0.0
2019-Dec-13 03:40 061 1 gusting 3 -0.3
2019-Dec-13 03:35 065 2 gusting 3 -0.4
2019-Dec-13 03:30 067 2 gusting 3 -0.6
2019-Dec-13 03:25 076 2 gusting 4 -0.9
2019-Dec-13 03:20 082 2 gusting 4 -1.1
2019-Dec-13 03:15 085 3 gusting 5 -1.3
2019-Dec-13 03:10 075 2 gusting 4 -1.9
2019-Dec-13 03:05 061 2 gusting 3 -2.8
2019-Dec-13 03:00 036 2 gusting 2 -2.3
2019-Dec-13 02:55 025 1 gusting 2 -2.5
2019-Dec-13 02:50 037 0 gusting 1 -2.2
2019-Dec-13 02:45 033 1 gusting 1 -2.1
2019-Dec-13 02:40 035 0 gusting 1 -2.1
2019-Dec-13 02:35 038 0 gusting 1 -2.3
2019-Dec-13 02:30 040 0 gusting 1 -2.7
2019-Dec-13 02:25 053 0 gusting 0 -3.1
2019-Dec-13 02:20 075 0 gusting 0 -3.2
2019-Dec-13 02:15 077 0 gusting 1 -3.4
2019-Dec-13 02:10 081 0 gusting 0 -3.4
2019-Dec-13 02:05 -3.4
2019-Dec-13 02:00 045 0 gusting 0 -3.3
2019-Dec-13 01:55 046 0 gusting 0 -3.3
2019-Dec-13 01:50 045 0 gusting 0 -3.2
2019-Dec-13 01:45 037 0 gusting 1 -2.9
2019-Dec-13 01:40 028 0 gusting 1 -2.6
2019-Dec-13 01:35 022 0 gusting 0 -2.6
2019-Dec-13 01:30 028 0 gusting 1 -2.9
2019-Dec-13 01:25 051 0 gusting 1 -2.7
2019-Dec-13 01:20 041 1 gusting 1 -2.9
2019-Dec-13 01:15 055 0 gusting 1 -3.2
2019-Dec-13 01:10 054 0 gusting 0 -3.4
2019-Dec-13 01:05 -3.3
2019-Dec-13 01:00 054 0 gusting 1 -3.1
2019-Dec-13 00:55 066 1 gusting 2 -3.3
2019-Dec-13 00:50 061 0 gusting 1 -3.6
2019-Dec-13 00:45 053 0 gusting 0 -3.4
2019-Dec-13 00:40 -3.1
2019-Dec-13 00:35 -2.7
2019-Dec-13 00:30 -2.7
2019-Dec-13 00:25 -2.6
2019-Dec-13 00:20 -2.4
2019-Dec-13 00:15 053 0 gusting 0 -2.3
2019-Dec-13 00:10 040 0 gusting 1 -2.3
2019-Dec-13 00:05 022 0 gusting 1 -2.3
2019-Dec-13 00:00 052 1 gusting 1 -2.3
2019-Dec-12 23:55 058 1 gusting 2 -2.5
2019-Dec-12 23:50 074 1 gusting 1 -2.5
2019-Dec-12 23:45 080 0 gusting 1 -2.5
2019-Dec-12 23:40 083 1 gusting 1 -2.5
2019-Dec-12 23:35 087 0 gusting 0 -2.4
2019-Dec-12 23:30 087 0 gusting 0 -2.4
2019-Dec-12 23:25 -2.1
2019-Dec-12 23:20 005 0 gusting 1 -1.9
2019-Dec-12 23:15 019 0 gusting 1 -2.0
2019-Dec-12 23:10 356 0 gusting 1 -1.6
2019-Dec-12 23:05 347 1 gusting 2 -1.3
2019-Dec-12 23:00 346 1 gusting 1 -1.2
2019-Dec-12 22:55 001 0 gusting 1 -0.9
2019-Dec-12 22:50 347 0 gusting 1 -1.0
2019-Dec-12 22:45 -0.8
2019-Dec-12 22:40 097 0 gusting 0 -0.5
2019-Dec-12 22:35 103 0 gusting 1 -0.3
2019-Dec-12 22:30 120 1 gusting 2 -0.1
2019-Dec-12 22:25 128 1 gusting 2 -0.0
2019-Dec-12 22:20 128 1 gusting 2 -0.1
2019-Dec-12 22:15 131 1 gusting 2 -0.2
2019-Dec-12 22:10 127 0 gusting 1 0.1
2019-Dec-12 22:05 130 1 gusting 2 0.1
2019-Dec-12 22:00 120 0 gusting 1 0.2
2019-Dec-12 21:55 110 1 gusting 1 0.5
2019-Dec-12 21:50 114 1 gusting 2 0.8
2019-Dec-12 21:45 110 1 gusting 2 0.9
2019-Dec-12 21:40 125 1 gusting 2 1.0
2019-Dec-12 21:35 129 2 gusting 4 1.2
2019-Dec-12 21:30 124 1 gusting 2 1.3
2019-Dec-12 21:25 119 1 gusting 2 1.4
2019-Dec-12 21:20 121 2 gusting 3 1.5
2019-Dec-12 21:15 122 2 gusting 3 1.6
2019-Dec-12 21:10 119 2 gusting 4 1.7
2019-Dec-12 21:05 119 3 gusting 5 1.9
2019-Dec-12 21:00 131 4 gusting 5 2.0
2019-Dec-12 20:55 095 3 gusting 4 2.2
2019-Dec-12 20:50 113 3 gusting 5 2.2
2019-Dec-12 20:45 118 3 gusting 5 2.3
2019-Dec-12 20:40 121 3 gusting 5 2.3
2019-Dec-12 20:35 114 4 gusting 6 2.6
2019-Dec-12 20:30 154 3 gusting 5 2.7
2019-Dec-12 20:25 144 3 gusting 4 2.6
2019-Dec-12 20:20 141 3 gusting 5 2.6
2019-Dec-12 20:15 156 4 gusting 8 3.2
2019-Dec-12 20:10 161 2 gusting 4 3.3
2019-Dec-12 20:05 144 2 gusting 4 2.9
2019-Dec-12 20:00 146 3 gusting 5 2.7
2019-Dec-12 19:55 126 4 gusting 6 2.6
2019-Dec-12 19:50 109 3 gusting 6 2.8
2019-Dec-12 19:45 074 3 gusting 5 2.7
2019-Dec-12 19:40 127 4 gusting 7 2.8
2019-Dec-12 19:35 168 2 gusting 7 2.9
2019-Dec-12 19:30 115 3 gusting 6 2.6
2019-Dec-12 19:25 122 5 gusting 7 2.7
2019-Dec-12 19:20 133 3 gusting 8 3.1
2019-Dec-12 19:15 150 3 gusting 6 2.7
2019-Dec-12 19:10 118 5 gusting 8 2.7
2019-Dec-12 19:05 062 4 gusting 5 2.7
2019-Dec-12 19:00 093 4 gusting 7 2.5
2019-Dec-12 18:55 094 4 gusting 6 2.7
2019-Dec-12 18:50 120 4 gusting 6 2.8
2019-Dec-12 18:45 140 4 gusting 6 3.1
2019-Dec-12 18:40 134 3 gusting 6 3.1
2019-Dec-12 18:35 089 3 gusting 9 3.0
2019-Dec-12 18:30 084 3 gusting 6 2.9
2019-Dec-12 18:25 091 3 gusting 5 3.2
2019-Dec-12 18:20 169 2 gusting 4 3.6
2019-Dec-12 18:15 136 1 gusting 3 3.2
2019-Dec-12 18:10 141 1 gusting 3 2.8
2019-Dec-12 18:05 099 4 gusting 8 2.5
2019-Dec-12 18:00 080 5 gusting 8 2.6
2019-Dec-12 17:55 076 3 gusting 5 2.5
2019-Dec-12 17:50 100 3 gusting 6 2.4
2019-Dec-12 17:45 073 3 gusting 7 2.4
2019-Dec-12 17:40 136 2 gusting 4 2.5
2019-Dec-12 17:35 145 2 gusting 6 2.4
2019-Dec-12 17:30 071 2 gusting 5 1.9
2019-Dec-12 17:25 094 3 gusting 6 2.0
2019-Dec-12 17:20 123 3 gusting 6 2.0
2019-Dec-12 17:15 093 4 gusting 6 1.8
2019-Dec-12 17:10 092 4 gusting 8 1.6
2019-Dec-12 17:05 111 4 gusting 6 1.9
2019-Dec-12 17:00 118 2 gusting 4 1.7
2019-Dec-12 16:55 105 4 gusting 7 1.6
2019-Dec-12 16:50 117 4 gusting 6 1.7
2019-Dec-12 16:45 083 3 gusting 5 1.4
2019-Dec-12 16:40 067 3 gusting 6 1.3
2019-Dec-12 16:35 082 5 gusting 8 1.3
2019-Dec-12 16:30 092 3 gusting 7 1.4
2019-Dec-12 16:25 092 3 gusting 7 1.2
2019-Dec-12 16:20 116 3 gusting 5 1.3
2019-Dec-12 16:15 097 4 gusting 6 1.1
2019-Dec-12 16:10 063 4 gusting 5 0.8
2019-Dec-12 16:05 068 4 gusting 7 0.9
2019-Dec-12 16:00 087 4 gusting 7 0.8
2019-Dec-12 15:55 084 4 gusting 7 0.7
2019-Dec-12 15:50 089 4 gusting 7 0.7
2019-Dec-12 15:45 094 5 gusting 7 0.7
2019-Dec-12 15:40 092 5 gusting 8 0.5
2019-Dec-12 15:35 060 5 gusting 8 0.4
2019-Dec-12 15:30 075 4 gusting 5 0.4
2019-Dec-12 15:25 060 5 gusting 7 0.3
2019-Dec-12 15:20 067 6 gusting 8 0.2
2019-Dec-12 15:15 088 6 gusting 9 0.5
2019-Dec-12 15:10 097 4 gusting 7 0.4
2019-Dec-12 15:05 089 4 gusting 6 0.1
2019-Dec-12 15:00 042 5 gusting 7 -0.2
2019-Dec-12 14:55 046 5 gusting 8 -0.2
2019-Dec-12 14:50 062 5 gusting 7 -0.1
2019-Dec-12 14:45 065 3 gusting 5 -0.1
2019-Dec-12 14:40 050 3 gusting 7 -0.4
2019-Dec-12 14:35 076 3 gusting 4 -0.5
2019-Dec-12 14:30 048 3 gusting 6 -0.5
2019-Dec-12 14:25 042 2 gusting 3 -0.8
2019-Dec-12 14:20 058 3 gusting 5 -1.0
2019-Dec-12 14:15 057 2 gusting 4 -1.1
2019-Dec-12 14:10 044 3 gusting 6 -1.2
2019-Dec-12 14:05 046 4 gusting 7 -1.3
2019-Dec-12 14:00 048 3 gusting 5 -1.3
2019-Dec-12 13:55 025 2 gusting 5 -1.1
2019-Dec-12 13:50 029 1 gusting 3 -1.4
2019-Dec-12 13:45 030 3 gusting 4 -1.5
2019-Dec-12 13:40 042 2 gusting 3 -1.6
2019-Dec-12 13:35 036 2 gusting 4 -1.3
2019-Dec-12 13:30 062 1 gusting 1 -1.2
2019-Dec-12 13:25 068 0 gusting 1 -1.3
2019-Dec-12 13:20 029 0 gusting 1 -1.8
2019-Dec-12 13:15 011 1 gusting 2 -2.3
2019-Dec-12 13:10 006 1 gusting 2 -2.7
2019-Dec-12 13:05 359 1 gusting 1 -3.2
2019-Dec-12 13:00 018 1 gusting 1 -3.2
2019-Dec-12 12:55 037 0 gusting 1 -3.4
2019-Dec-12 12:50 228 0 gusting 1 -3.9
2019-Dec-12 12:45 246 1 gusting 1 -3.9
2019-Dec-12 12:40 230 0 gusting 1 -3.7
2019-Dec-12 12:35 198 0 gusting 0 -3.6
2019-Dec-12 12:30 058 0 gusting 1 -3.3
2019-Dec-12 12:25 033 1 gusting 2 -3.4
2019-Dec-12 12:20 015 2 gusting 3 -3.6
2019-Dec-12 12:15 001 1 gusting 2 -3.7
2019-Dec-12 12:10 004 2 gusting 2 -3.6
2019-Dec-12 12:05 348 0 gusting 2 -3.9
2019-Dec-12 12:00 203 0 gusting 0 -3.2
2019-Dec-12 11:55 336 1 gusting 2 -2.9
2019-Dec-12 11:50 005 1 gusting 1 -2.8
2019-Dec-12 11:45 040 1 gusting 2 -2.7
2019-Dec-12 11:40 013 2 gusting 3 -2.7
2019-Dec-12 11:35 009 3 gusting 4 -2.4
2019-Dec-12 11:30 022 2 gusting 4 -2.4
2019-Dec-12 11:25 017 3 gusting 7 -2.5
2019-Dec-12 11:20 004 3 gusting 6 -2.4
2019-Dec-12 11:15 017 2 gusting 5 -2.3
2019-Dec-12 11:10 015 3 gusting 5 -2.4
2019-Dec-12 11:05 002 3 gusting 5 -2.2
2019-Dec-12 11:00 014 3 gusting 6 -2.2
2019-Dec-12 10:55 013 4 gusting 7 -2.2
2019-Dec-12 10:50 013 4 gusting 7 -2.1
2019-Dec-12 10:45 012 3 gusting 6 -2.1
2019-Dec-12 10:40 012 3 gusting 6 -2.1
2019-Dec-12 10:35 007 3 gusting 6 -2.1
2019-Dec-12 10:30 008 4 gusting 6 -2.2
2019-Dec-12 10:25 009 4 gusting 9 -2.1
2019-Dec-12 10:20 006 4 gusting 8 -2.1
2019-Dec-12 10:15 007 5 gusting 8 -2.0
2019-Dec-12 10:10 024 4 gusting 9 -2.0
2019-Dec-12 10:05 017 4 gusting 7 -1.9
2019-Dec-12 10:00 010 5 gusting 9 -1.8
2019-Dec-12 09:55 011 4 gusting 8 -1.8
2019-Dec-12 09:50 009 5 gusting 7 -1.9
2019-Dec-12 09:45 359 5 gusting 8 -1.8
2019-Dec-12 09:40 007 5 gusting 8 -1.7
2019-Dec-12 09:35 013 4 gusting 8 -1.7
2019-Dec-12 09:30 002 7 gusting 12 -1.7
2019-Dec-12 09:25 008 5 gusting 9 -1.7
2019-Dec-12 09:20 019 6 gusting 9 -1.7
2019-Dec-12 09:15 009 5 gusting 9 -1.9
2019-Dec-12 09:10 005 4 gusting 6 -1.9
2019-Dec-12 09:05 006 4 gusting 7 -1.8
2019-Dec-12 09:00 023 2 gusting 4 -1.8
2019-Dec-12 08:55 019 3 gusting 5 -1.7
2019-Dec-12 08:50 011 5 gusting 9 -1.8
2019-Dec-12 08:45 017 4 gusting 6 -1.8
2019-Dec-12 08:40 027 4 gusting 6 -1.7
2019-Dec-12 08:35 014 4 gusting 6 -1.7
2019-Dec-12 08:30 008 5 gusting 7 -1.9
2019-Dec-12 08:25 013 4 gusting 7 -2.0
2019-Dec-12 08:20 013 4 gusting 7 -2.3
2019-Dec-12 08:15 008 3 gusting 6 -2.5
2019-Dec-12 08:10 013 2 gusting 3 -2.9
2019-Dec-12 08:05 023 1 gusting 2 -3.2
2019-Dec-12 08:00 011 0 gusting 1 -3.9
2019-Dec-12 07:55 180 1 gusting 2 -3.5
2019-Dec-12 07:50 187 0 gusting 1 -2.7
2019-Dec-12 07:45 004 0 gusting 1 -2.5
2019-Dec-12 07:40 325 0 gusting 1 -2.5
2019-Dec-12 07:35 298 0 gusting 2 -2.6
2019-Dec-12 07:30 040 0 gusting 0 -2.7
2019-Dec-12 07:25 353 0 gusting 3 -2.6
2019-Dec-12 07:20 321 2 gusting 4 -2.3
2019-Dec-12 07:05 008 1 gusting 1 -2.5
2019-Dec-12 07:00 332 1 gusting 2 -2.3
2019-Dec-12 06:55 010 1 gusting 2 -2.0
2019-Dec-12 06:50 029 0 gusting 1 -1.7
2019-Dec-12 06:45 322 0 gusting 0 -1.6
2019-Dec-12 06:40 293 0 gusting 3 -1.7
2019-Dec-12 06:35 308 1 gusting 3 -1.6
2019-Dec-12 06:30 311 2 gusting 4 -1.6
2019-Dec-12 06:25 286 2 gusting 3 -1.8
2019-Dec-12 06:20 270 2 gusting 2 -1.8
2019-Dec-12 06:15 251 1 gusting 2 -1.5
2019-Dec-12 06:10 253 1 gusting 2 -1.5
2019-Dec-12 06:05 269 2 gusting 3 -1.4
2019-Dec-12 06:00 277 2 gusting 3 -1.2
2019-Dec-12 05:55 287 1 gusting 3 -1.1
2019-Dec-12 05:50 258 0 gusting 2 -1.1
2019-Dec-12 05:45 268 1 gusting 2 -1.2
2019-Dec-12 05:40 281 2 gusting 3 -1.1
2019-Dec-12 05:35 296 1 gusting 3 -0.9
2019-Dec-12 05:30 304 1 gusting 3 -0.9
2019-Dec-12 05:25 278 1 gusting 3 -0.8
2019-Dec-12 05:20 292 1 gusting 4 -0.7
2019-Dec-12 05:15 282 2 gusting 5 -1.0
2019-Dec-12 05:10 269 2 gusting 4 -0.9
2019-Dec-12 05:05 281 1 gusting 3 -0.7
2019-Dec-12 05:00 287 1 gusting 2 -0.5
2019-Dec-12 04:55 293 2 gusting 3 -0.5
2019-Dec-12 04:50 295 1 gusting 4 -0.5
2019-Dec-12 04:45 298 2 gusting 5 -0.5
2019-Dec-12 04:40 305 2 gusting 4 -0.5
2019-Dec-12 04:35 301 2 gusting 4 -0.6
2019-Dec-12 04:30 282 2 gusting 4 -0.4
2019-Dec-12 04:25 295 1 gusting 4 -0.2
2019-Dec-12 04:20 307 2 gusting 5 -0.2
2019-Dec-12 04:15 314 3 gusting 7 -0.1
2019-Dec-12 04:10 302 3 gusting 6 -0.0
2019-Dec-12 04:05 295 2 gusting 4 0.0
2019-Dec-12 04:00 298 2 gusting 4 0.1
2019-Dec-12 03:55 297 3 gusting 8 0.4
2019-Dec-12 03:50 311 3 gusting 8 0.4
2019-Dec-12 03:45 315 4 gusting 9 0.3
2019-Dec-12 03:40 317 3 gusting 7 0.3
2019-Dec-12 03:35 322 4 gusting 7 0.4
2019-Dec-12 03:30 319 4 gusting 7 0.3
2019-Dec-12 03:25 328 4 gusting 7 0.4
2019-Dec-12 03:20 324 3 gusting 6 0.4
2019-Dec-12 03:15 329 2 gusting 5 0.5
2019-Dec-12 03:10 341 4 gusting 8 0.6
2019-Dec-12 03:05 331 4 gusting 8 0.6
2019-Dec-12 03:00 324 4 gusting 8 0.6
2019-Dec-12 02:55 320 4 gusting 8 0.7
2019-Dec-12 02:50 316 4 gusting 7 0.5
2019-Dec-12 02:45 311 4 gusting 6 0.5
2019-Dec-12 02:40 316 3 gusting 7 0.3
2019-Dec-12 02:35 313 3 gusting 5 0.3
2019-Dec-12 02:30 314 3 gusting 6 0.3
2019-Dec-12 02:25 298 2 gusting 5 0.1
2019-Dec-12 02:20 296 1 gusting 3 0.0
2019-Dec-12 02:15 297 1 gusting 5 -0.2
2019-Dec-12 02:10 275 2 gusting 6 -0.2
2019-Dec-12 02:05 270 2 gusting 4 -0.4
2019-Dec-12 02:00 264 2 gusting 3 -0.4
2019-Dec-12 01:55 278 1 gusting 2 -0.1
2019-Dec-12 01:50 276 1 gusting 2 -0.1
2019-Dec-12 01:45 272 1 gusting 2 0.2
2019-Dec-12 01:40 286 1 gusting 2 0.2
2019-Dec-12 01:35 292 1 gusting 3 0.2
2019-Dec-12 01:30 288 1 gusting 3 0.3
2019-Dec-12 01:25 295 1 gusting 3 0.5
2019-Dec-12 01:20 303 1 gusting 4 0.5
2019-Dec-12 01:15 318 2 gusting 4 0.5
2019-Dec-12 01:10 314 2 gusting 4 0.6
2019-Dec-12 01:05 300 2 gusting 5 0.6
2019-Dec-12 01:00 313 3 gusting 5 0.6
2019-Dec-12 00:55 323 3 gusting 5 0.6
2019-Dec-12 00:50 317 2 gusting 4 0.7
2019-Dec-12 00:45 313 2 gusting 4 0.7
2019-Dec-12 00:40 323 2 gusting 4 0.7
2019-Dec-12 00:35 328 3 gusting 6 0.8
2019-Dec-12 00:30 323 4 gusting 6 0.7
2019-Dec-12 00:25 324 3 gusting 5 0.6
2019-Dec-12 00:20 315 3 gusting 6 0.5
2019-Dec-12 00:15 310 2 gusting 5 0.5
2019-Dec-12 00:10 312 2 gusting 4 0.6
2019-Dec-12 00:05 301 1 gusting 3 0.7
2019-Dec-12 00:00 293 1 gusting 3 0.6
2019-Dec-11 23:55 289 1 gusting 2 0.7
2019-Dec-11 23:50 284 1 gusting 3 0.8
2019-Dec-11 23:45 312 1 gusting 2 0.9
2019-Dec-11 23:40 296 2 gusting 4 0.8
2019-Dec-11 23:35 296 2 gusting 3 0.7
2019-Dec-11 23:30 285 2 gusting 4 0.8
2019-Dec-11 23:25 295 2 gusting 4 0.7
2019-Dec-11 23:20 299 2 gusting 5 0.5
2019-Dec-11 23:15 292 1 gusting 3 -0.1
2019-Dec-11 23:10 281 0 gusting 1 -0.6
2019-Dec-11 23:05 290 0 gusting 1 -0.9
2019-Dec-11 23:00 232 0 gusting 1 -0.8